Roseburg, OR

6:48 AM PDT on October 19, 2017 (GMT -0700)
Roseburg Regional

Weather History for KRBG - May, 2013

Change the Weather History Date:

Monday, May 27, 2013

  Actual Average Record
Temperature  
Mean Temperature 59 °F 60 °F  
Max Temperature 66 °F 72 °F 90 °F (2005)
Min Temperature 52 °F 49 °F 32 °F (1954)
Degree Days  
Heating Degree Days 6 5  
Month to date heating degree days 124 198  
Since 1 July heating degree days 3572 3962  
Cooling Degree Days 0 1  
Month to date cooling degree days 32 15  
Year to date cooling degree days 34 16  
Growing Degree Days 10 (Base 50)    
Moisture  
Dew Point 52 °F    
Average Humidity 78    
Maximum Humidity 93    
Minimum Humidity 63    
Precipitation  
Precipitation 0.34 in 0.06 in 0.93 in (1947)
Month to date precipitation 1.36 2.02  
Year to date precipitation 7.52 17.38  
Snow  
Snow 0.00 in - - ()
Month to date snowfall  
Since 1 July snowfall  
Snow Depth -    
Sea Level Pressure  
Sea Level Pressure 29.88 in    
Wind  
Wind Speed 4 mph (SSW)    
Max Wind Speed 12 mph    
Max Gust Speed 20 mph    
Visibility 9 miles    
Events Rain    
T = Trace of Precipitation, MM = Missing Value Source: NWS Daily Summary

Daily Weather History Graph

Daily Weather History Graph

Search for Another Location

Airport or City:

Trip Planner

Search our weather history database for the weather conditions in past years. The results will help you decide how hot, cold, wet, or windy it might be!

Date:

Astronomy

May. 27, 2013 Rise Set
Actual Time 5:38 AM PDT 8:42 PM PDT
Civil Twilight 5:04 AM PDT 9:17 PM PDT
Nautical Twilight 4:21 AM PDT 10:01 PM PDT
Astronomical Twilight 3:28 AM PDT 10:53 PM PDT
Moon 11:24 PM PDT (5/27) 8:24 AM PDT (5/27)
Length of Visible Light 16h 12m
Length of Day
15h 03m
Waning Gibbous, 90% of the Moon is Illuminated
May 27
Waning Gibbous
May 31
Last Quarter
Jun 8
New
Jun 16
First Quarter
Jun 23
Full

Hourly Weather History & Observations

Time (PDT) Temp. Dew Point Humidity Pressure Visibility Wind Dir Wind Speed Gust Speed Precip Events Conditions
12:53 AM 55.0 °F 48.9 °F 80% 30.00 in 10.0 mi Calm Calm - N/A   Overcast
1:53 AM 55.0 °F 50.0 °F 83% 29.99 in 10.0 mi Calm Calm - 0.00 in Rain Light Rain
2:53 AM 54.0 °F 51.1 °F 90% 29.98 in 6.0 mi Calm Calm - 0.05 in Rain Light Rain
3:53 AM 53.1 °F 51.1 °F 93% 29.97 in 5.0 mi SE 4.6 mph - 0.08 in Rain Rain
4:53 AM 53.1 °F 50.0 °F 89% 29.94 in 9.0 mi Calm Calm - 0.07 in Rain Light Rain
5:53 AM 53.1 °F 51.1 °F 93% 29.92 in 10.0 mi SSE 3.5 mph - 0.04 in Rain Light Rain
6:53 AM 53.1 °F 51.1 °F 93% 29.90 in 10.0 mi SSE 3.5 mph - 0.01 in Rain Light Rain
7:53 AM 54.0 °F 52.0 °F 93% 29.88 in 10.0 mi Calm Calm - 0.00 in Rain Light Rain
8:53 AM 55.9 °F 52.0 °F 87% 29.86 in 10.0 mi South 3.5 mph - 0.03 in   Overcast
9:53 AM 57.9 °F 53.1 °F 84% 29.84 in 10.0 mi South 4.6 mph - 0.01 in Rain Light Rain
10:53 AM 59.0 °F 54.0 °F 83% 29.84 in 10.0 mi SSE 4.6 mph - 0.01 in Rain Light Rain
11:53 AM 62.1 °F 54.0 °F 75% 29.84 in 10.0 mi South 5.8 mph - 0.00 in   Overcast
12:53 PM 64.9 °F 54.0 °F 68% 29.83 in 10.0 mi SW 6.9 mph - 0.00 in   Overcast
1:53 PM 66.0 °F 53.1 °F 63% 29.83 in 10.0 mi South 10.4 mph 18.4 mph N/A   Overcast
2:53 PM 64.0 °F 55.9 °F 75% 29.83 in 7.0 mi Variable 4.6 mph - 0.00 in Rain Light Rain
3:53 PM 63.0 °F 55.0 °F 75% 29.84 in 5.0 mi SW 8.1 mph 16.1 mph 0.01 in Rain Light Rain
4:53 PM 61.0 °F 55.0 °F 81% 29.85 in 2.5 mi WSW 9.2 mph - 0.02 in Rain Rain
5:03 PM 60.8 °F 55.4 °F 82% 29.85 in 6.0 mi SW 9.2 mph - 0.00 in Rain Light Rain
5:53 PM 62.1 °F 54.0 °F 75% 29.85 in 10.0 mi SW 8.1 mph - 0.01 in   Overcast
6:53 PM 61.0 °F 53.1 °F 75% 29.84 in 10.0 mi Calm Calm - N/A   Mostly Cloudy
7:53 PM 60.1 °F 52.0 °F 75% 29.86 in 10.0 mi Calm Calm - N/A   Overcast
8:53 PM 59.0 °F 50.0 °F 72% 29.87 in 10.0 mi WSW 4.6 mph - N/A   Overcast
9:53 PM 57.9 °F 48.9 °F 72% 29.88 in 10.0 mi Variable 4.6 mph - N/A   Mostly Cloudy
10:53 PM 55.9 °F 48.0 °F 75% 29.89 in 10.0 mi Calm Calm - N/A   Partly Cloudy
11:53 PM 55.9 °F 48.0 °F 75% 29.90 in 10.0 mi Calm Calm - N/A   Overcast